TimeCDT,TemperatureF,Dew PointF,Humidity,Sea Level PressureIn,VisibilityMPH,Wind Direction,Wind SpeedMPH,Gust SpeedMPH,PrecipitationIn,Events,Conditions,WindDirDegrees,DateUTC
12:15 AM,66.0,50.9,58,29.83,10.0,Calm,Calm,-,N/A,,Clear,0,2014-05-07 05:15:00
12:35 AM,65.3,51.3,60,29.81,10.0,ESE,13.8,-,N/A,,Clear,120,2014-05-07 05:35:00
12:55 AM,64.9,51.3,61,29.80,10.0,ESE,12.7,-,N/A,,Clear,120,2014-05-07 05:55:00
1:15 AM,65.3,51.4,61,29.83,10.0,Calm,Calm,-,N/A,,Clear,0,2014-05-07 06:15:00
1:35 AM,66.2,51.8,60,29.82,10.0,SE,10.4,-,N/A,,Clear,140,2014-05-07 06:35:00
1:55 AM,65.5,52.0,62,29.81,10.0,Calm,Calm,-,N/A,,Clear,0,2014-05-07 06:55:00
2:15 AM,64.8,52.0,63,29.82,10.0,Calm,Calm,-,N/A,,Clear,0,2014-05-07 07:15:00
2:35 AM,63.3,52.3,67,29.81,10.0,Calm,Calm,-,N/A,,Clear,0,2014-05-07 07:35:00
2:55 AM,63.9,52.9,67,29.80,10.0,Calm,Calm,-,N/A,,Clear,0,2014-05-07 07:55:00
3:15 AM,64.0,53.2,68,29.80,10.0,Calm,Calm,-,N/A,,Clear,0,2014-05-07 08:15:00
3:35 AM,64.6,53.6,68,29.79,10.0,SSE,8.1,-,N/A,,Clear,160,2014-05-07 08:35:00
3:55 AM,64.8,53.6,67,29.80,10.0,Calm,Calm,-,N/A,,Clear,0,2014-05-07 08:55:00
4:15 AM,64.6,53.6,68,29.79,10.0,Calm,Calm,-,N/A,,Clear,0,2014-05-07 09:15:00
4:35 AM,65.1,53.2,65,29.79,10.0,Calm,Calm,-,N/A,,Clear,0,2014-05-07 09:35:00
4:55 AM,63.9,53.1,68,29.79,10.0,Calm,Calm,-,N/A,,Clear,0,2014-05-07 09:55:00
5:15 AM,63.5,52.9,68,29.80,10.0,Calm,Calm,-,N/A,,Clear,0,2014-05-07 10:15:00
5:35 AM,63.1,52.9,69,29.80,10.0,Calm,Calm,-,N/A,,Clear,0,2014-05-07 10:35:00
5:55 AM,61.9,52.9,72,29.80,7.0,Calm,Calm,-,N/A,,Clear,0,2014-05-07 10:55:00
6:15 AM,62.4,53.4,72,29.81,7.0,Calm,Calm,-,N/A,,Clear,0,2014-05-07 11:15:00
6:35 AM,65.5,53.6,65,29.82,10.0,Calm,Calm,-,N/A,,Clear,0,2014-05-07 11:35:00
6:55 AM,66.4,54.0,64,29.82,10.0,South,8.1,-,N/A,,Clear,190,2014-05-07 11:55:00
7:15 AM,67.8,54.5,62,29.83,10.0,SSW,4.6,-,N/A,,Clear,200,2014-05-07 12:15:00
7:35 AM,69.4,55.0,60,29.83,10.0,SSW,11.5,-,N/A,,Clear,200,2014-05-07 12:35:00
7:55 AM,71.1,55.6,58,29.84,10.0,SSW,9.2,18.4,N/A,,Clear,200,2014-05-07 12:55:00
8:15 AM,72.5,56.5,57,29.85,10.0,SSW,15.0,-,N/A,,Clear,210,2014-05-07 13:15:00
8:35 AM,73.4,56.5,55,29.85,10.0,SW,15.0,18.4,N/A,,Clear,220,2014-05-07 13:35:00
8:55 AM,73.4,56.7,56,29.85,10.0,SW,13.8,-,N/A,,Clear,220,2014-05-07 13:55:00
9:15 AM,74.5,57.4,55,29.85,10.0,SW,3.5,-,N/A,,Clear,220,2014-05-07 14:15:00
9:35 AM,75.4,57.2,53,29.85,10.0,SSW,9.2,16.1,N/A,,Clear,210,2014-05-07 14:35:00
9:55 AM,77.4,58.5,52,29.85,10.0,SSW,10.4,17.3,N/A,,Clear,200,2014-05-07 14:55:00
10:15 AM,78.6,58.6,50,29.85,10.0,South,3.5,18.4,N/A,,Clear,190,2014-05-07 15:15:00
10:35 AM,79.7,58.3,48,29.84,10.0,South,10.4,-,N/A,,Clear,180,2014-05-07 15:35:00
10:55 AM,81.1,58.8,46,29.85,10.0,Calm,Calm,-,N/A,,Clear,0,2014-05-07 15:55:00
11:15 AM,82.0,57.9,44,29.85,10.0,Calm,Calm,-,N/A,,Clear,0,2014-05-07 16:15:00
11:35 AM,82.4,58.1,43,29.85,10.0,SSW,5.8,-,N/A,,Clear,200,2014-05-07 16:35:00
11:55 AM,83.1,58.5,43,29.84,10.0,Calm,Calm,-,N/A,,Clear,0,2014-05-07 16:55:00
12:15 PM,83.8,58.6,42,29.84,10.0,South,4.6,-,N/A,,Clear,190,2014-05-07 17:15:00
12:35 PM,85.5,58.3,40,29.83,10.0,SSW,12.7,21.9,N/A,,Clear,200,2014-05-07 17:35:00
12:55 PM,86.5,58.3,38,29.84,7.0,SSW,12.7,19.6,N/A,,Clear,200,2014-05-07 17:55:00
1:15 PM,87.3,57.9,37,29.83,10.0,SSW,11.5,23.0,N/A,,Clear,200,2014-05-07 18:15:00
1:35 PM,87.3,57.6,36,29.83,10.0,SSW,10.4,20.7,N/A,,Clear,200,2014-05-07 18:35:00
1:55 PM,87.3,57.4,36,29.83,10.0,SSW,11.5,18.4,N/A,,Clear,210,2014-05-07 18:55:00
2:15 PM,86.5,57.2,37,29.82,10.0,South,17.3,20.7,N/A,,Clear,180,2014-05-07 19:15:00
2:35 PM,87.6,56.7,35,29.82,10.0,South,15.0,20.7,N/A,,Clear,190,2014-05-07 19:35:00
2:55 PM,89.8,56.3,32,29.80,10.0,South,13.8,24.2,N/A,,Clear,190,2014-05-07 19:55:00
3:15 PM,89.2,55.6,32,29.79,10.0,South,15.0,24.2,N/A,,Clear,170,2014-05-07 20:15:00
3:35 PM,89.6,55.4,31,29.80,10.0,South,17.3,25.3,N/A,,Clear,170,2014-05-07 20:35:00
3:55 PM,89.4,55.4,31,29.81,10.0,South,20.7,26.5,N/A,,Clear,180,2014-05-07 20:55:00
4:15 PM,88.3,54.9,32,29.81,10.0,South,17.3,24.2,N/A,,Clear,180,2014-05-07 21:15:00
4:35 PM,87.8,55.4,33,29.82,10.0,South,19.6,26.5,N/A,,Clear,190,2014-05-07 21:35:00
4:55 PM,87.6,55.0,33,29.82,10.0,SSW,13.8,24.2,N/A,,Clear,200,2014-05-07 21:55:00
5:15 PM,86.7,55.8,35,29.82,10.0,South,15.0,19.6,N/A,,Clear,190,2014-05-07 22:15:00
5:35 PM,86.4,55.4,35,29.82,10.0,South,16.1,-,N/A,,Clear,180,2014-05-07 22:35:00
5:55 PM,86.5,54.9,34,29.83,10.0,South,17.3,24.2,N/A,,Clear,190,2014-05-07 22:55:00
6:10 PM,85.3,54.0,34,29.83,10.0,SSW,16.1,21.9,N/A,,Clear,200,2014-05-07 23:10:00
6:35 PM,84.2,55.0,37,29.82,10.0,South,13.8,26.5,N/A,,Clear,190,2014-05-07 23:35:00
6:55 PM,83.3,57.0,41,29.83,10.0,South,19.6,25.3,N/A,,Clear,190,2014-05-07 23:55:00
7:10 PM,82.4,56.3,41,29.84,10.0,South,15.0,-,N/A,,Clear,190,2014-05-08 00:10:00
7:35 PM,80.8,58.1,46,29.85,10.0,South,13.8,-,N/A,,Clear,190,2014-05-08 00:35:00
7:55 PM,79.7,58.5,48,29.86,10.0,South,9.2,-,N/A,,Clear,190,2014-05-08 00:55:00
8:15 PM,78.8,58.5,50,29.86,10.0,Calm,Calm,-,N/A,,Clear,0,2014-05-08 01:15:00
8:35 PM,78.1,57.7,49,29.86,10.0,South,10.4,-,N/A,,Clear,180,2014-05-08 01:35:00
8:55 PM,76.8,57.6,51,29.86,10.0,Calm,Calm,-,N/A,,Clear,0,2014-05-08 01:55:00
9:15 PM,76.3,57.6,52,29.86,10.0,Calm,Calm,-,N/A,,Clear,0,2014-05-08 02:15:00
9:35 PM,75.6,57.7,54,29.86,10.0,Calm,Calm,-,N/A,,Clear,0,2014-05-08 02:35:00
9:55 PM,74.5,57.6,55,29.86,10.0,Calm,Calm,-,N/A,,Clear,0,2014-05-08 02:55:00
10:15 PM,73.9,57.6,56,29.87,10.0,Calm,Calm,-,N/A,,Clear,0,2014-05-08 03:15:00
10:35 PM,73.4,57.2,57,29.86,10.0,Calm,Calm,-,N/A,,Clear,0,2014-05-08 03:35:00
10:55 PM,72.5,57.4,59,29.86,10.0,Calm,Calm,-,N/A,,Clear,0,2014-05-08 03:55:00
11:15 PM,72.5,58.1,60,29.86,10.0,Calm,Calm,-,N/A,,Clear,0,2014-05-08 04:15:00
11:35 PM,72.5,57.7,60,29.86,10.0,South,10.4,16.1,N/A,,Clear,180,2014-05-08 04:35:00
11:55 PM,73.2,57.0,57,29.86,10.0,South,16.1,20.7,N/A,,Clear,180,2014-05-08 04:55:00